Home   Weather   Augusta   Past weeks

Flag for USA Past Weather in Augusta, Georgia, USA — Yesterday and Last 2 Weeks

Now
50 °F

Clear.


Feels Like: 48 °F
Forecast: 40 / 57 °F
Wind: 6 mph from Northwest

Location: Daniel Field

Current Time: Dec 3, 2016 at 1:55:44 am

Latest Report: Dec 2, 2016 at 11:53 pm


Visibility: 10 mi

Pressure: 30.23 "Hg

Humidity: 44%

Dew Point: 29 °F

Location of AugustaLocation

Past Weather in Augusta — Graph

°F

Augusta Temperature Yesterday

Maximum temperature yesterday: 62 °F (at 2:53 pm)
Minimum temperature yesterday: 41 °F (at 5:53 am)
Average temperature yesterday: 51 °F

High & Low Weather Summary for the Past Weeks

 TemperatureHumidityPressure
High78 °F (Nov 30, 3:53 pm)93% (Nov 29, 10:57 pm)30.33 "Hg (Nov 29, 10:57 pm)
Low38 °F (Nov 21, 7:04 am)12% (Nov 20, 3:53 pm)29.72 "Hg (Nov 30, 4:53 pm)
Average58 °F51%30.12 "Hg
* Reported Nov 17 11:53 pm — Dec 2 11:53 pm, Augusta, Weather by CustomWeather, © 2016

Note: Actual official high and low records may vary slightly from our data, if they occured in-between our weather recording intervals... More about our weather records

Advertising

Augusta Weather History for the Previous 24 Hours

Scroll right to see more
 ConditionsComfort  
Time TempWeatherWind HumidityBarometerVisibility
11:53 pm
Fri, Dec 2
50 °FClear.6 mph44%30.23 "Hg10 mi
10:53 pm52 °FClear.6 mph41%30.21 "Hg10 mi
9:53 pm54 °FClear.9 mph37%30.21 "Hg10 mi
8:53 pm52 °FClear.No wind45%30.22 "Hg10 mi
7:53 pm52 °FClear.No wind49%30.20 "Hg10 mi
6:53 pm53 °FClear.No wind43%30.20 "Hg10 mi
5:53 pm55 °FClear.No wind42%30.19 "Hg10 mi
4:53 pm60 °FSunny.3 mph32%30.17 "Hg10 mi
3:53 pm62 °FSunny.6 mph29%30.16 "Hg10 mi
2:53 pm62 °FSunny.7 mph30%30.16 "Hg10 mi
1:53 pm59 °FSunny.5 mph33%30.17 "Hg10 mi
12:53 pm59 °FSunny.5 mph33%30.19 "Hg10 mi
11:53 am56 °FSunny.No wind39%30.20 "Hg10 mi
10:53 am54 °FSunny.No wind41%30.22 "Hg10 mi
9:53 am51 °FSunny.6 mph50%30.22 "Hg10 mi
8:53 am47 °FSunny.7 mph56%30.20 "Hg10 mi
7:53 am43 °FSunny.8 mph65%30.17 "Hg10 mi
6:53 am43 °FClear.8 mph62%30.15 "Hg10 mi
5:53 am41 °FClear.7 mph70%30.13 "Hg10 mi
4:53 am43 °FClear.3 mph62%30.11 "Hg10 mi
3:53 am45 °FClear.5 mph56%30.09 "Hg10 mi
2:53 am46 °FClear.7 mph54%30.08 "Hg10 mi
1:53 am47 °FClear.7 mph52%30.06 "Hg10 mi
Weather by CustomWeather, © 2016

See weather overviewHow to use our weather pages